Regional Weather Roundup
Issued by NWS

Home | Current Version | Previous Version | Graphics & Text | Print | Product List | Glossary On
Versions: 1 2 3 4 5 6 7 8 9 10 11 12 13 14 15 16 17 18 19 20 21 22 23 24 25 26 27 28 29 30 31 32 33 34 35 36 37 38 39 40 41 42 43 44 45 46 47 48 49 50
000
ASUS43 KLSX 251610
RWRMO

WEATHER SUMMARY FOR MISSOURI
NATIONAL WEATHER SERVICE SPRINGFIELD MO
1100 AM CDT TUE APR 25 2017

NOTE: "FAIR" INDICATES FEW OR NO CLOUDS BELOW 12,000 FEET WITH NO
       SIGNIFICANT WEATHER AND/OR OBSTRUCTIONS TO VISIBILITY.
       CURRENT SKY AND/OR WEATHER CONDITIONS ARE NOT AVAILABLE FOR
       CHILLICOTHE AND FARMINGTON.

MOZ001>031-035>038-043-044-053-054-251700-
...NORTHERN AND WESTERN MISSOURI...

CITY           SKY/WX    TMP DP  RH WIND       PRES   REMARKS
KANSAS CTY INT CLOUDY    68  50  52 S14       29.44F
KANSAS C DTWN  PTSUNNY   69  50  50 S10       29.44F
LEE`S SUMMIT   CLOUDY    68  50  52 S18G24    29.46S
ST JOSEPH      CLOUDY    68  51  54 S15       29.44F
CHILLICOTHE      N/A     67  48  50 SE12G20   29.50F
KIRKSVILLE     MOSUNNY   69  49  48 SE14      29.53F

$$
MOZ066>068-077>081-088>096-101>105-251700-
...SOUTHWEST MISSOURI...

CITY           SKY/WX    TMP DP  RH WIND       PRES   REMARKS
SPRINGFIELD    SUNNY     70  50  49 S22G32    29.51F
JOPLIN         SUNNY     74  55  51 S21G29    29.46F
BRANSON        PTSUNNY   72  52  49 S16G24    29.55F

$$
MOZ032>034-039>042-045>050-055>058-069>072-251700-
...CENTRAL MISSOURI...

CITY           SKY/WX    TMP DP  RH WIND       PRES   REMARKS
COLUMBIA       PTSUNNY   70  50  49 SE14      29.54F
JEFFERSON CITY MOSUNNY   72  48  42 SE13      29.54F
ROLLA          SUNNY     70  50  49 S18G25    29.57F
SEDALIA        CLOUDY    71  52  50 SE14      29.51F
WHITEMAN AFB   PTSUNNY   71  52  49 S15       29.46F
OSAGE BEACH    SUNNY     72  50  45 SE14G21   29.54F

$$
MOZ051-052-059>065-251700-
...EAST CENTRAL MISSOURI...

CITY           SKY/WX    TMP DP  RH WIND       PRES   REMARKS
ST LOUIS INTL  PTSUNNY   74  48  39 S15G24    29.65F
SPIRIT OF STL  PTSUNNY   73  52  47 SE10G20   29.62F
ST CHARLES     SUNNY     74  49  41 S18       29.63F

$$
MOZ072>076-082>087-097>100-106>115-251700-
...SOUTH CENTRAL AND SOUTHEAST MISSOURI...

CITY           SKY/WX    TMP DP  RH WIND       PRES   REMARKS
CAPE GIRARDEAU SUNNY     71  55  56 S13G23    29.71F
FARMINGTON     SUNNY     71  51  49 S15G23    29.67F
POPLAR BLUFF   SUNNY     70  53  54 S13       29.70F
WEST PLAINS    SUNNY     69  50  50 S18G25    29.64F

$$




USA.gov is the U.S. government's official web portal to all federal, state and local government web resources and services.